owner,sensor,date,latitude,longitude,vertical_datum,sea_water_temperature,qcFlag 
TCOON,ioos:station:TCOON:031:1,2015-09-28T19:06:00Z,28.4073,-96.7122,0.0,28.7,2 
TCOON,ioos:station:TCOON:031:1,2015-09-28T19:48:00Z,28.4073,-96.7122,0.0,29.0,2 
TCOON,ioos:station:TCOON:031:1,2015-09-28T20:30:00Z,28.4073,-96.7122,0.0,29.2,2 
TCOON,ioos:station:TCOON:031:1,2015-09-28T21:24:00Z,28.4073,-96.7122,0.0,28.9,2 
TCOON,ioos:station:TCOON:031:1,2015-09-28T22:42:00Z,28.4073,-96.7122,0.0,28.9,2 
TCOON,ioos:station:TCOON:031:1,2015-09-28T23:12:00Z,28.4073,-96.7122,0.0,28.9,2 
TCOON,ioos:station:TCOON:031:1,2015-09-29T00:12:00Z,28.4073,-96.7122,0.0,28.9,2 
TCOON,ioos:station:TCOON:031:1,2015-09-29T01:18:00Z,28.4073,-96.7122,0.0,28.8,2 
TCOON,ioos:station:TCOON:031:1,2015-09-29T02:18:00Z,28.4073,-96.7122,0.0,28.6,2 
TCOON,ioos:station:TCOON:031:1,2015-09-29T03:18:00Z,28.4073,-96.7122,0.0,28.4,2 
TCOON,ioos:station:TCOON:031:1,2015-09-29T04:24:00Z,28.4073,-96.7122,0.0,28.2,2 
TCOON,ioos:station:TCOON:031:1,2015-09-29T05:18:00Z,28.4073,-96.7122,0.0,28.2,2 
TCOON,ioos:station:TCOON:031:1,2015-09-29T06:24:00Z,28.4073,-96.7122,0.0,28.1,2 
TCOON,ioos:station:TCOON:031:1,2015-09-29T07:54:00Z,28.4073,-96.7122,0.0,28.1,2 
TCOON,ioos:station:TCOON:031:1,2015-09-29T08:18:00Z,28.4073,-96.7122,0.0,28.4,2 
TCOON,ioos:station:TCOON:031:1,2015-09-29T09:18:00Z,28.4073,-96.7122,0.0,28.2,2 
TCOON,ioos:station:TCOON:031:1,2015-09-29T10:18:00Z,28.4073,-96.7122,0.0,27.3,2 
TCOON,ioos:station:TCOON:031:1,2015-09-29T11:24:00Z,28.4073,-96.7122,0.0,27.2,2 
TCOON,ioos:station:TCOON:031:1,2015-09-29T12:18:00Z,28.4073,-96.7122,0.0,26.6,2 
TCOON,ioos:station:TCOON:031:1,2015-09-29T13:06:00Z,28.4073,-96.7122,0.0,26.4,2 
TCOON,ioos:station:TCOON:031:1,2015-09-29T14:12:00Z,28.4073,-96.7122,0.0,26.5,2 
TCOON,ioos:station:TCOON:031:1,2015-09-29T15:12:00Z,28.4073,-96.7122,0.0,26.8,2 
TCOON,ioos:station:TCOON:031:1,2015-09-29T16:12:00Z,28.4073,-96.7122,0.0,26.9,2 
TCOON,ioos:station:TCOON:031:1,2015-09-29T17:12:00Z,28.4073,-96.7122,0.0,27.2,2 
TCOON,ioos:station:TCOON:031:1,2015-09-29T18:12:00Z,28.4073,-96.7122,0.0,27.4,2 
TCOON,ioos:station:TCOON:031:1,2015-09-29T19:12:00Z,28.4073,-96.7122,0.0,27.8,2 
TCOON,ioos:station:TCOON:031:1,2015-09-29T20:18:00Z,28.4073,-96.7122,0.0,28.0,2 
TCOON,ioos:station:TCOON:031:1,2015-09-29T21:12:00Z,28.4073,-96.7122,0.0,28.1,2 
TCOON,ioos:station:TCOON:031:1,2015-09-29T22:18:00Z,28.4073,-96.7122,0.0,28.2,2 
TCOON,ioos:station:TCOON:031:1,2015-09-29T23:24:00Z,28.4073,-96.7122,0.0,28.4,2 
TCOON,ioos:station:TCOON:031:1,2015-09-30T00:24:00Z,28.4073,-96.7122,0.0,28.4,2 
TCOON,ioos:station:TCOON:031:1,2015-09-30T01:12:00Z,28.4073,-96.7122,0.0,28.5,2 
TCOON,ioos:station:TCOON:031:1,2015-09-30T02:24:00Z,28.4073,-96.7122,0.0,28.2,2 
TCOON,ioos:station:TCOON:031:1,2015-09-30T03:24:00Z,28.4073,-96.7122,0.0,28.0,2 
TCOON,ioos:station:TCOON:031:1,2015-09-30T04:18:00Z,28.4073,-96.7122,0.0,28.1,2 
TCOON,ioos:station:TCOON:031:1,2015-09-30T05:24:00Z,28.4073,-96.7122,0.0,27.9,2 
TCOON,ioos:station:TCOON:031:1,2015-09-30T06:24:00Z,28.4073,-96.7122,0.0,27.8,2 
TCOON,ioos:station:TCOON:031:1,2015-09-30T07:24:00Z,28.4073,-96.7122,0.0,27.7,2 
TCOON,ioos:station:TCOON:031:1,2015-09-30T08:12:00Z,28.4073,-96.7122,0.0,27.7,2 
TCOON,ioos:station:TCOON:031:1,2015-09-30T09:18:00Z,28.4073,-96.7122,0.0,27.4,2 
TCOON,ioos:station:TCOON:031:1,2015-09-30T10:18:00Z,28.4073,-96.7122,0.0,27.3,2 
TCOON,ioos:station:TCOON:031:1,2015-09-30T11:12:00Z,28.4073,-96.7122,0.0,27.2,2 
TCOON,ioos:station:TCOON:031:1,2015-09-30T12:06:00Z,28.4073,-96.7122,0.0,27.1,2 
TCOON,ioos:station:TCOON:031:1,2015-09-30T13:24:00Z,28.4073,-96.7122,0.0,27.0,2 
TCOON,ioos:station:TCOON:031:1,2015-09-30T14:18:00Z,28.4073,-96.7122,0.0,27.0,2 
TCOON,ioos:station:TCOON:031:1,2015-09-30T15:24:00Z,28.4073,-96.7122,0.0,27.1,2 
TCOON,ioos:station:TCOON:031:1,2015-09-30T16:24:00Z,28.4073,-96.7122,0.0,27.5,2 
TCOON,ioos:station:TCOON:031:1,2015-09-30T17:18:00Z,28.4073,-96.7122,0.0,27.7,2 
TCOON,ioos:station:TCOON:031:1,2015-09-30T18:24:00Z,28.4073,-96.7122,0.0,28.1,2 
TCOON,ioos:station:TCOON:031:1,2015-09-30T19:18:00Z,28.4073,-96.7122,0.0,28.4,2 
TCOON,ioos:station:TCOON:031:1,2015-09-30T20:12:00Z,28.4073,-96.7122,0.0,28.7,2 
TCOON,ioos:station:TCOON:031:1,2015-09-30T21:12:00Z,28.4073,-96.7122,0.0,29.1,2 
TCOON,ioos:station:TCOON:031:1,2015-09-30T22:18:00Z,28.4073,-96.7122,0.0,29.2,2 
TCOON,ioos:station:TCOON:031:1,2015-09-30T23:18:00Z,28.4073,-96.7122,0.0,28.9,2 
 
DISCLAIMER: The Gulf of Mexico Coastal and Ocean Observing (GCOOS) Data Portal aggregates data from the regional data providers for the convenience of all data users. Data published on this website should not be used for navigation or certain other uses as we cannot guarantee data accuracy or availability. The data and delivery services are provided 'as is' without warranty of any kind. Data Source: Gulf of Mexico Coastal Ocean Observing System Data Portal (http://data.gcoos.org/) 
